Location: Unspecified
(40.7945°N, 111.1337°W)
Time: 16:03:06
(UTC-06:00)

Vanguard 2 Rocket - Visible Passes

Search period start: 19 June 2019 00:00
Search period end: 29 June 2019 00:00
Orbit: 554 x 3326 km, 32.9° (Epoch: 19 June)

Date Brightness Start Highest point End Pass type
(mag) Time Alt. Az. Time Alt. Az. Time Alt. Az.
19 Jun 8.8 00:39:21 10° WSW 00:50:04 60° SSE 01:07:43 10° E visible
19 Jun 9.2 02:52:28 10° W 03:06:31 63° S 03:26:19 10° ESE visible
19 Jun 9.8 05:07:33 10° W 05:23:39 45° SSW 05:41:49 10° SE visible
19 Jun 8.9 21:31:18 10° S 21:36:52 20° SE 21:44:42 10° E visible
19 Jun 8.6 23:40:28 10° SW 23:49:34 51° SSE 00:05:01 10° E visible
20 Jun 9.0 01:52:45 10° WSW 02:05:04 64° S 02:24:10 10° ESE visible
20 Jun 9.5 04:06:52 10° W 04:22:02 51° SSW 04:41:09 10° SE visible
20 Jun 8.5 22:42:01 10° SW 22:49:37 40° SSE 23:02:19 10° E visible
21 Jun 8.7 00:53:24 10° WSW 01:04:00 62° S 01:21:41 10° E visible
21 Jun 9.3 03:06:43 10° W 03:20:27 57° SSW 03:39:47 10° SE visible
21 Jun 8.6 21:44:03 10° SSW 21:50:10 28° SE 21:59:38 10° E visible
21 Jun 8.5 23:54:24 10° WSW 00:03:25 57° SSE 00:19:04 10° E visible
22 Jun 9.0 02:06:58 10° W 02:19:04 60° S 02:37:52 10° ESE visible
22 Jun 9.6 04:21:21 10° W 04:35:44 42° SSW 04:53:52 10° SE visible
22 Jun 8.3 22:55:44 10° SW 23:03:20 48° SSE 23:16:30 10° E visible
23 Jun 8.7 01:07:35 10° WSW 01:18:02 61° S 01:35:32 10° ESE visible
23 Jun 9.3 03:21:04 10° W 03:34:19 49° SSW 03:52:53 10° SE visible
23 Jun 8.3 21:57:25 10° SW 22:03:42 36° SSE 22:14:05 10° E visible
24 Jun 8.4 00:08:31 10° WSW 00:17:25 59° S 00:33:02 10° E visible
24 Jun 9.0 02:21:16 10° W 02:33:04 54° SSW 02:51:16 10° SE visible
24 Jun 9.8 04:36:11 10° W 04:49:25 33° SSW 05:05:54 10° SSE visible
24 Jun 8.2 23:09:42 10° WSW 23:17:14 53° SSE 23:30:34 10° E visible
25 Jun 8.7 01:21:50 10° W 01:32:06 57° S 01:49:11 10° ESE visible
25 Jun 9.5 03:35:38 10° W 03:48:10 39° SSW 04:05:26 10° SE visible
25 Jun 8.0 22:11:11 10° SW 22:17:29 44° SSE 22:28:19 10° E visible
26 Jun 8.4 00:22:42 10° WSW 00:31:29 58° S 00:46:52 10° ESE visible
26 Jun 9.1 02:35:41 10° W 02:47:03 45° SSW 03:04:15 10° SE visible
26 Jun 10.0 04:51:41 10° W 05:03:06 24° SW 05:16:55 10° S visible
26 Jun 8.1 23:23:50 10° WSW 23:31:17 55° S 23:44:32 10° ESE visible
27 Jun 8.8 01:36:11 10° W 01:46:10 50° SSW 02:02:32 10° SE visible
27 Jun 9.6 03:50:36 10° W 04:02:01 30° SSW 04:17:15 10° SSE visible
27 Jun 7.9 22:25:10 10° WSW 22:31:27 49° SSE 22:42:25 10° E visible
28 Jun 8.4 00:37:00 10° W 00:45:36 53° S 01:00:29 10° ESE visible
28 Jun 9.3 02:50:22 10° W 03:01:02 36° SSW 03:16:39 10° SSE visible
28 Jun 10.2 05:08:51 10° WSW 05:16:50 15° SW 05:25:58 10° S visible
28 Jun 7.8 21:26:45 10° SW 21:32:00 39° SSE 21:40:36 10° E visible
28 Jun 8.1 23:38:04 10° WSW 23:45:24 53° S 23:58:22 10° ESE visible
